Location: Boćki
(52.6512°N, 23.0459°E)
Time: 10:45:53
(UTC+01:00)

ISS - Pass Details

Date: 01 February 2019
Orbit: 403 x 411 km, 51.6° (Epoch: 18 February)

Event Time Altitude Azimuth Distance (km) Brightness Sun altitude
Rises 18:56:53 0° 278° (W) 2,340 1.4 -24.9°
Reaches altitude 10° 18:59:00 10° 274° (W) 1,479 0.1 -25.2°
Enters shadow 19:00:51 29° 260° (W) 786 -1.8 -25.5°
